Regional Weather Roundup
Issued by NWS Cleveland, OH

Home | Current Version | Previous Version | Graphics & Text | Print | Product List | Glossary On
Versions: 1 2 3 4 5 6 7 8 9 10 11 12 13 14 15 16 17 18 19 20 21 22 23 24 25 26 27 28 29 30 31 32 33 34 35 36 37 38 39 40 41 42 43 44 45 46 47 48 49 50
000
ASUS41 KCLE 041502
RWRCLE
OHIO REGIONAL WEATHER ROUNDUP
NATIONAL WEATHER SERVICE CLEVELAND, OH
1000 AM EST WED MAR 04 2015

NOTE: "FAIR" INDICATES FEW OR NO CLOUDS BELOW 12,000 FEET WITH NO
SIGNIFICANT WEATHER AND/OR OBSTRUCTIONS TO VISIBILITY.

OHZ001>008-015>018-024>027-034-035-043-044-041600-
   NORTHWEST OHIO

CITY           SKY/WX    TMP DP  RH WIND       PRES   REMARKS
DEFIANCE       CLOUDY    34  25  69 NW7       29.98R WCI  28
FINDLAY        CLOUDY    33  25  72 W7        29.97S WCI  27
TOLEDO EXPRESS CLOUDY    32  24  72 W10       29.97R WCI  24
TOLEDO EXEC    CLOUDY    33  24  69 W9        29.99R WCI  25
LIMA           CLOUDY    33  26  75 NW7       29.97R WCI  27
$$

OHZ009>014-019>023-028>033-038-089-041600-
   NORTHEAST OHIO

CITY           SKY/WX    TMP DP  RH WIND       PRES   REMARKS
CLE-HOPKINS    CLOUDY    32  24  72 NW10      29.98S WCI  24
CLE-LAKEFRONT  CLOUDY    32  27  81 NW7       29.96R WCI  26
CUY CO. ARPT   CLOUDY    34  27  75 NW9       29.95R WCI  26
LORAIN-ELYRIA  CLOUDY    32  24  72 N8        29.96S WCI  25
ASHTABULA      CLOUDY    32  23  69 W6        29.95R WCI  26
AKRON-CANTON   CLOUDY    35  28  75 W8        29.93R WCI  29
WOOSTER        CLOUDY    33  28  81 NW7       29.95R WCI  27
MANSFIELD      CLOUDY    32  26  78 NW8       29.94S WCI  25
YOUNGSTOWN     CLOUDY    34  29  82 W8        29.92R WCI  27
$$

OHZ042-051>053-060>062-070>072-077>081-041600-
  SOUTHWEST OHIO

CITY           SKY/WX    TMP DP  RH WIND       PRES   REMARKS
CINC-COVINGTON CLOUDY    35  33  92 N8        29.97F FOG     WCI  29
CINC-LUNKEN    CLOUDY    36  33  89 NW3       30.00S FOG
HAMILTON       CLOUDY    36  32  85 NW7       30.01R
DAYTON         CLOUDY    34  31  88 NW8       29.99R FOG     WCI  27
WRIGHT-PAT AFB CLOUDY    34  31  88 NW8       29.99S FOG     WCI  28
DAYTON GENERAL CLOUDY    34  31  88 NW9       29.97R WCI  27
WILMINGTON     CLOUDY    34  30  85 NW8       29.97R WCI  27
$$

OHZ036-037-039>041-045>050-054>059-063>069-073>076-082>088-041600-
  CENTRAL AND SOUTHEAST OHIO

CITY           SKY/WX    TMP DP  RH WIND       PRES   REMARKS
COLUMBUS       CLOUDY    35  35 100 NW6       29.94F FOG
OSU AIRPORT    CLOUDY    34  31  88 NW8       29.95F FOG     WCI  27
BOLTON FIELD   CLOUDY    34  32  93 NW7       29.96S FOG     WCI  28
RICKENBACK AFB NOT AVBL
NEWARK         CLOUDY    35  32  88 NW3       29.93F
MARION         CLOUDY    33  27  78 NW8       29.95F HAZE    WCI  26
LANCASTER      CLOUDY    35  33  92 CALM      29.94F FOG
ZANESVILLE     CLOUDY    34  33  96 W6        29.96R FOG     WCI  29
NEW PHILLY     CLOUDY    36  33  89 W3        29.96R FOG
$$


USA.gov is the U.S. government's official web portal to all federal, state and local government web resources and services.